Zurück zum Katalog

SL-6 R/B(2)

AktivHEO
NORAD 13897·ROCKET BODY·🇷🇺 Russia

Gestartet Mar 16, 1983 von Plesetsk Cosmodrome

Loading…

Nächste Überflüge (nächste 24 Stunden)

TLE

AktuellSource: Space-Track

Epoche: Sep 9, 2026, 20:28 UTC

1 13897U 83019D   26252.85331886  .00000596  00000-0  00000-0 0  9998
2 13897  62.6999 192.3936 7025771 277.2296  14.3243  1.97337191312305

Verfolge SL-6 R/B(2) in Echtzeit mit AllMySat

Download on the App Store